When you browse on this site, cookies collect data to enhance your experience and personalize the content and advertising you see.
Visit our Privacy Policy to learn more. By continuing to use the site, you agree to this use of cookies and data.

Hourly Weather Kalgoorlie

Today, 8 July, Wednesday

Time Temperature Precipitation Wind Pressure Humidity
00:00 +9°C° 0 mm 3 mps 734 mmHg 71%
01:00 +9°C° 0 mm 2 mps 734 mmHg 74%
02:00 +9°C° 0 mm 2 mps 733 mmHg 75%
03:00 +8°C° 0 mm 2 mps 733 mmHg 76%
04:00 +8°C° 0 mm 2 mps 733 mmHg 76%
05:00 +8°C° 0 mm 3 mps 733 mmHg 77%
06:00 +8°C° 0 mm 3 mps 734 mmHg 75%
07:00 +9°C° 0 mm 3 mps 734 mmHg 72%
08:00 +10°C° 0 mm 3 mps 734 mmHg 71%
09:00 +11°C° 0 mm 4 mps 734 mmHg 65%
10:00 +13°C° 0 mm 4 mps 734 mmHg 58%
11:00 +15°C° 0 mm 5 mps 734 mmHg 51%
12:00 +16°C° 0 mm 5 mps 733 mmHg 48%
13:00 +16°C° 0 mm 5 mps 733 mmHg 45%
14:00 +17°C° 0 mm 5 mps 733 mmHg 42%
15:00 +17°C° 0 mm 4 mps 732 mmHg 44%
16:00 +17°C° 0 mm 4 mps 732 mmHg 46%
17:00 +15°C° 0 mm 4 mps 732 mmHg 48%
18:00 +14°C° 0 mm 4 mps 733 mmHg 48%
19:00 +12°C° 0 mm 3 mps 733 mmHg 48%
20:00 +11°C° 0 mm 3 mps 734 mmHg 49%
21:00 +11°C° 0 mm 3 mps 734 mmHg 53%
22:00 +10°C° 0 mm 3 mps 734 mmHg 56%
23:00 +10°C° 0 mm 3 mps 734 mmHg 60%

Tomorrow, 9 July, Thursday

Time Temperature Precipitation Wind Pressure Humidity
00:00 +9°C° 0 mm 3 mps 734 mmHg 63%
01:00 +9°C° 0 mm 3 mps 734 mmHg 67%
02:00 +9°C° 0 mm 3 mps 733 mmHg 70%
03:00 +9°C° 0 mm 3 mps 734 mmHg 73%
04:00 +8°C° 0 mm 3 mps 734 mmHg 76%
05:00 +8°C° 0 mm 3 mps 734 mmHg 79%
06:00 +8°C° 0 mm 3 mps 734 mmHg 81%
07:00 +8°C° 0 mm 4 mps 735 mmHg 82%
08:00 +8°C° 0 mm 4 mps 735 mmHg 84%
09:00 +10°C° 0 mm 4 mps 735 mmHg 75%
10:00 +12°C° 0 mm 4 mps 735 mmHg 67%
11:00 +13°C° 0 mm 4 mps 735 mmHg 58%
12:00 +14°C° 0 mm 4 mps 735 mmHg 55%
13:00 +14°C° 0 mm 4 mps 734 mmHg 52%
14:00 +14°C° 0 mm 3 mps 734 mmHg 49%
15:00 +14°C° 0 mm 4 mps 734 mmHg 48%
16:00 +13°C° 0 mm 4 mps 734 mmHg 48%
17:00 +13°C° 0 mm 4 mps 735 mmHg 48%
18:00 +12°C° 0 mm 4 mps 735 mmHg 52%
19:00 +11°C° 0 mm 4 mps 735 mmHg 56%
20:00 +10°C° 0 mm 4 mps 736 mmHg 60%
21:00 +10°C° 0 mm 4 mps 736 mmHg 60%
22:00 +8°C° 0 mm 4 mps 736 mmHg 61%
23:00 +8°C° 0 mm 4 mps 737 mmHg 62%

Day after tomorrow, 10 July, Friday

Time Temperature Precipitation Wind Pressure Humidity
00:00 +7°C° 0 mm 4 mps 737 mmHg 68%
01:00 +6°C° 0 mm 4 mps 737 mmHg 75%
02:00 +6°C° 0 mm 4 mps 737 mmHg 81%
03:00 +5°C° 0 mm 3 mps 737 mmHg 85%
04:00 +5°C° 0 mm 3 mps 737 mmHg 90%
05:00 +5°C° 0 mm 3 mps 737 mmHg 94%
06:00 +5°C° 0 mm 3 mps 738 mmHg 92%
07:00 +5°C° 0 mm 3 mps 738 mmHg 90%
08:00 +5°C° 0 mm 3 mps 739 mmHg 88%
09:00 +8°C° 0 mm 3 mps 739 mmHg 76%
10:00 +8°C° 0 mm 4 mps 739 mmHg 63%
11:00 +10°C° 0 mm 4 mps 739 mmHg 51%
12:00 +11°C° 0 mm 3 mps 738 mmHg 47%
13:00 +12°C° 0 mm 3 mps 738 mmHg 43%
14:00 +13°C° 0 mm 3 mps 737 mmHg 38%
15:00 +12°C° 0 mm 3 mps 737 mmHg 40%
16:00 +12°C° 0 mm 3 mps 738 mmHg 42%
17:00 +12°C° 0 mm 3 mps 738 mmHg 44%
18:00 +10°C° 0 mm 3 mps 738 mmHg 49%
19:00 +8°C° 0 mm 4 mps 738 mmHg 55%
20:00 +7°C° 0 mm 5 mps 739 mmHg 60%
21:00 +7°C° 0 mm 4 mps 739 mmHg 64%
22:00 +6°C° 0 mm 4 mps 739 mmHg 67%
23:00 +7°C° 0 mm 3 mps 739 mmHg 70%

11 July, Saturday

Time Temperature Precipitation Wind Pressure Humidity
00:00 +5°C° 0 mm 3 mps 739 mmHg 73%
01:00 +5°C° 0 mm 3 mps 739 mmHg 76%
02:00 +4°C° 0 mm 3 mps 739 mmHg 78%
03:00 +4°C° 0 mm 3 mps 739 mmHg 81%
04:00 +3°C° 0 mm 3 mps 739 mmHg 83%
05:00 +3°C° 0 mm 3 mps 739 mmHg 86%
06:00 +4°C° 0 mm 2 mps 739 mmHg 84%
07:00 +5°C° 0 mm 2 mps 739 mmHg 82%
08:00 +5°C° 0 mm 2 mps 740 mmHg 80%
09:00 +7°C° 0 mm 2 mps 740 mmHg 72%
10:00 +8°C° 0 mm 3 mps 740 mmHg 63%
11:00 +10°C° 0 mm 3 mps 740 mmHg 55%
12:00 +11°C° 0 mm 3 mps 739 mmHg 51%
13:00 +12°C° 0 mm 3 mps 738 mmHg 47%
14:00 +14°C° 0 mm 2 mps 737 mmHg 43%
15:00 +13°C° 0 mm 2 mps 737 mmHg 44%
16:00 +13°C° 0 mm 2 mps 737 mmHg 46%
17:00 +12°C° 0 mm 2 mps 737 mmHg 47%
18:00 +10°C° 0 mm 2 mps 737 mmHg 50%
19:00 +10°C° 0 mm 2 mps 738 mmHg 52%
20:00 +9°C° 0 mm 2 mps 738 mmHg 54%
21:00 +9°C° 0 mm 2 mps 738 mmHg 56%
22:00 +8°C° 0 mm 3 mps 738 mmHg 58%
23:00 +8°C° 0 mm 3 mps 738 mmHg 60%

12 July, Sunday

Time Temperature Precipitation Wind Pressure Humidity
00:00 +6°C° 0 mm 4 mps 737 mmHg 65%
01:00 +6°C° 0 mm 4 mps 737 mmHg 69%
02:00 +5°C° 0 mm 4 mps 737 mmHg 74%
03:00 +5°C° 0 mm 4 mps 737 mmHg 77%
04:00 +4°C° 0 mm 4 mps 737 mmHg 79%
05:00 +4°C° 0 mm 4 mps 736 mmHg 81%
06:00 +4°C° 0 mm 4 mps 737 mmHg 80%
07:00 +5°C° 0 mm 4 mps 737 mmHg 78%
08:00 +5°C° 0 mm 4 mps 737 mmHg 76%
09:00 +7°C° 0 mm 4 mps 737 mmHg 67%
10:00 +9°C° 0 mm 5 mps 737 mmHg 57%
11:00 +12°C° 0 mm 5 mps 737 mmHg 48%
12:00 +13°C° 0 mm 5 mps 736 mmHg 43%
13:00 +14°C° 0 mm 5 mps 735 mmHg 39%
14:00 +15°C° 0 mm 5 mps 734 mmHg 35%
15:00 +14°C° 0 mm 4 mps 734 mmHg 36%
16:00 +14°C° 0 mm 4 mps 734 mmHg 37%
17:00 +13°C° 0 mm 3 mps 734 mmHg 39%
18:00 +12°C° 0 mm 3 mps 734 mmHg 40%
19:00 +11°C° 0 mm 3 mps 734 mmHg 42%
20:00 +11°C° 0 mm 3 mps 734 mmHg 43%
21:00 +10°C° 0 mm 3 mps 734 mmHg 44%
22:00 +10°C° 0 mm 4 mps 734 mmHg 44%
23:00 +10°C° 0 mm 4 mps 734 mmHg 44%

13 July, Monday

Time Temperature Precipitation Wind Pressure Humidity
00:00 +8°C° 0 mm 4 mps 734 mmHg 46%
01:00 +8°C° 0 mm 5 mps 734 mmHg 47%
02:00 +8°C° 0 mm 5 mps 733 mmHg 49%
03:00 +7°C° 0 mm 5 mps 733 mmHg 51%
04:00 +7°C° 0 mm 4 mps 733 mmHg 54%
05:00 +6°C° 0 mm 4 mps 733 mmHg 56%
06:00 +7°C° 0 mm 4 mps 733 mmHg 56%
07:00 +7°C° 0 mm 4 mps 734 mmHg 56%
08:00 +7°C° 0 mm 4 mps 734 mmHg 56%
09:00 +10°C° 0 mm 5 mps 734 mmHg 48%
10:00 +13°C° 0 mm 6 mps 734 mmHg 40%
11:00 +15°C° 0 mm 7 mps 733 mmHg 32%
12:00 +16°C° 0 mm 7 mps 733 mmHg 29%
13:00 +17°C° 0 mm 6 mps 732 mmHg 26%
14:00 +19°C° 0 mm 6 mps 731 mmHg 23%
15:00 +17°C° 0 mm 5 mps 731 mmHg 24%
16:00 +16°C° 0 mm 5 mps 731 mmHg 26%
17:00 +15°C° 0 mm 4 mps 730 mmHg 27%
18:00 +15°C° 0 mm 4 mps 730 mmHg 28%
19:00 +14°C° 0 mm 5 mps 730 mmHg 29%
20:00 +13°C° 0 mm 5 mps 730 mmHg 30%
21:00 +13°C° 0 mm 6 mps 730 mmHg 31%
22:00 +11°C° 0 mm 6 mps 730 mmHg 31%
23:00 +11°C° 0 mm 6 mps 729 mmHg 32%
Show more